This is the latest recevied weather packets stored in our database for station/object N5YHM-13. If no packets are shown the sender has not sent any weather packets the latest 10 day(s).
| Time | Temp. | Humidity | Pressure | Rain* | Wind** | Luminosity | Snow |
|---|---|---|---|---|---|---|---|
| 1778102772 | 28.33° C | 83% | 1013.2 hPa | 0 mm | - | 11 W/m² | - |
| 1778102466 | 28.33° C | 82% | 1013.3 hPa | 0 mm | - | 12 W/m² | - |
| 1778102162 | 28.33° C | 82% | 1013.6 hPa | 0 mm | - | 5 W/m² | - |
| 1778101860 | 28.33° C | 81% | 1013.6 hPa | 0 mm | - | 8 W/m² | - |
| 1778101556 | 28.89° C | 81% | 1013.3 hPa | 0 mm | - | 16 W/m² | - |
| 1778101253 | 28.89° C | 80% | 1013.3 hPa | 0 mm | - | 21 W/m² | - |
| 1778100950 | 28.89° C | 79% | 1013.3 hPa | 0 mm | - | 14 W/m² | - |
| 1778100644 | 29.44° C | 78% | 1013.4 hPa | 0 mm | - | 20 W/m² | - |
| 1778100343 | 29.44° C | 79% | 1013.4 hPa | 0 mm | - | 76 W/m² | - |
| 1778100040 | 29.44° C | 79% | 1013.5 hPa | 0 mm | - | 32 W/m² | - |
| 1778099738 | 28.89° C | 81% | 1013.6 hPa | 0 mm | - | 98 W/m² | - |
| 1778099434 | 28.89° C | 80% | 1013.6 hPa | 0 mm | - | 22 W/m² | - |
| 1778099132 | 28.89° C | 80% | 1013.9 hPa | 0 mm | - | 17 W/m² | - |
| 1778098828 | 28.89° C | 80% | 1013.6 hPa | 0 mm | - | 18 W/m² | - |
| 1778098526 | 28.89° C | 79% | 1014 hPa | 0 mm | - | 18 W/m² | - |
| 1778098222 | 29.44° C | 79% | 1013.8 hPa | 0 mm | - | 29 W/m² | - |
| 1778097913 | 29.44° C | 79% | 1013.9 hPa | 0 mm | - | 46 W/m² | - |
| 1778097610 | 28.89° C | 80% | 1014 hPa | 0 mm | - | 38 W/m² | - |
| 1778097307 | 29.44° C | 80% | 1014 hPa | 0 mm | - | 49 W/m² | - |
| 1778097003 | 28.33° C | 82% | 1014.1 hPa | 0 mm | - | 57 W/m² | - |
| 1778096701 | 28.33° C | 83% | 1014.4 hPa | 0 mm | - | 25 W/m² | - |
| 1778096397 | 28.33° C | 83% | 1014.4 hPa | 0 mm | - | 15 W/m² | - |
| 1778096095 | 28.89° C | 83% | 1014.7 hPa | 0 mm | - | 17 W/m² | - |
| 1778095790 | 28.89° C | 82% | 1014.7 hPa | 0 mm | - | 19 W/m² | - |
| 1778095487 | 28.89° C | 83% | 1014.6 hPa | 0 mm | - | 25 W/m² | - |
* Rain latest hour (hover to see other rain measurements)
** Current wind speed in m/s (hover to see current wind gust speed)